Location: Dappach
(48.9767°N, 9.6998°E)
Time: 00:57:36
(UTC+00:00)

COSMOS 2428 - Pass Details

Date: 18 August 2024
Orbit: 842 x 857 km, 70.9° (Epoch: 09 September)

Event Time Altitude Azimuth Distance (km) Brightness Sun altitude
Exits shadow 00:34:14 61° 261° (W) 962 2.8 -26.2°
Maximum altitude 00:34:56 67° 301° (WNW) 921 2.8 -26.1°
Drops below altitude 10° 00:40:38 10° 25° (NNE) 2,493 6.2 -25.8°
Sets 00:43:08 0° 28° (NNE) 3,435 7.2 -25.7°
